Date,TemperatureHighF,TemperatureAvgF,TemperatureLowF,DewpointHighF,DewpointAvgF,DewpointLowF,HumidityHigh,HumidityAvg,HumidityLow,PressureMaxIn,PressureMinIn,WindSpeedMaxMPH,WindSpeedAvgMPH,GustSpeedMaxMPH,PrecipitationSumIn
2013-9-1,76.0,67.1,60.2,64.2,61.8,59.8,100,84,59,29.83,29.72,5,0,12,0.02
2013-9-2,65.9,63.3,59.6,63.0,61.2,59.4,100,93,87,29.83,29.67,9,4,20,0.59
2013-9-3,66.0,59.8,57.0,60.8,58.5,56.9,100,96,80,29.73,29.64,2,0,7,0.07
2013-9-4,66.8,56.6,51.5,56.8,53.0,49.8,100,88,56,29.85,29.72,6,1,16,0.02
2013-9-5,56.0,47.9,38.7,49.5,41.4,35.5,97,80,52,30.11,29.84,2,0,15,0.00
2013-9-6,61.0,48.0,33.7,43.7,38.4,32.7,97,72,44,30.21,30.03,5,1,15,0.00
2013-9-7,68.3,54.4,45.5,51.9,46.8,41.1,96,78,50,30.03,29.76,6,1,16,0.02
2013-9-8,54.0,48.2,38.1,52.7,43.7,34.3,100,85,61,30.03,29.69,3,1,25,0.16
2013-9-9,61.2,47.6,33.8,45.9,39.9,32.8,100,77,49,30.18,30.03,5,1,13,0.00
2013-9-10,60.5,54.8,48.2,60.2,53.1,43.6,100,94,77,30.08,29.98,1,0,3,0.10
2013-9-11,83.3,69.2,60.3,71.8,65.3,60.3,100,89,58,30.00,29.82,5,1,16,1.17
2013-9-12,69.2,63.8,61.1,67.2,63.4,61.1,100,98,92,29.89,29.57,2,0,9,0.57
2013-9-13,61.2,54.8,48.8,61.2,54.7,48.8,100,100,97,29.74,29.55,3,0,13,0.52
2013-9-14,50.0,46.9,45.2,49.3,46.9,45.2,100,100,96,30.03,29.74,2,0,12,0.40
2013-9-15,59.5,49.1,39.2,51.2,46.0,39.2,100,90,70,30.10,29.98,3,0,12,0.00
2013-9-16,50.3,43.4,32.0,48.9,41.6,31.0,100,93,79,30.28,29.95,3,0,15,0.28
2013-9-17,56.7,42.6,30.5,42.7,37.0,29.6,100,83,54,30.46,30.29,5,0,13,0.29
2013-9-18,65.4,48.8,36.2,46.9,41.7,36.0,100,80,43,30.32,30.12,5,0,13,0.00
2013-9-19,70.9,53.5,39.7,50.1,45.6,39.7,100,78,39,30.14,30.02,5,0,12,0.00
2013-9-20,73.5,58.9,46.0,54.6,50.4,45.2,100,76,42,30.07,29.93,7,2,13,0.00
2013-9-22,55.7,48.6,40.8,54.5,47.6,39.6,100,96,89,29.76,29.52,2,0,12,1.10
2013-9-23,41.0,38.9,35.8,39.4,37.5,34.9,100,95,89,29.98,29.76,3,1,17,0.04
2013-9-24,43.9,39.9,36.8,40.4,37.3,35.3,97,90,85,29.98,29.88,3,1,15,0.00
2013-9-25,48.8,43.0,36.4,44.5,41.0,35.6,100,93,81,30.01,29.90,2,0,7,0.00
2013-9-26,51.6,46.5,40.6,47.3,44.1,39.5,97,91,83,30.17,30.01,3,0,10,0.00
2013-9-27,64.8,51.9,44.0,51.8,47.4,42.9,100,86,58,30.27,30.16,3,0,9,0.00
2013-9-28,69.5,52.8,40.2,53.8,47.6,40.2,100,85,51,30.35,30.23,3,0,9,0.00
2013-9-29,68.2,54.9,43.1,52.3,47.4,43.1,100,79,46,30.23,30.04,6,1,12,0.00
2013-9-30,68.8,54.2,41.7,51.4,46.7,41.2,100,79,46,30.07,29.94,5,0,6,0.00